RESURS O1-N4

Satellite information

Favourite Embed

Satellite Type and Status

PAYLOADIN ORBIT

Key statistics

Satellite RESURS O1-N4 at a glance.

Uptime

9960

Days in orbit

Revolutions

≈ 14.3

Per day

Orbit

SSO

Sun Synchronous Orbit

Inclination

98.9

Latest

Satellite identification and parameters

Extended collection of information and parameters for RESURS O1-N4.

Object identification

Identified? True

Debris? False

Object name: RESURS O1-N4

International designator: 1998-043A

Object number (NORAD): 25394

Object ID (CCSDS): 25394

Country: COMMONWEALTH OF INDEPENDENT STATES (CIS)

Current information (Y/N): Y

RCS size: LARGE

Orbital parameters

Period: 101.052 minutes

Inclination: 98.9091 deg

SMA: 7186.597 km

Apoapsis: 810.191 km

Periapsis: 806.734 km

RAAN: 253.0432 deg

Eccentricy: 0.00024048

Argument of periapsis: 102.895 deg

Mean anomaly: 257.2497 deg

Mean motion: 14.2500962 rev/day

Mean motion (dot): 0.00000198 rev/day2

B* drag term: 0.00010403515 1/REarth

Two-line elements (TLE)

Creation date: Oct. 16, 2025, 2:37 a.m.

Reference frame: TEME

Reference center: EARTH

Epoch: Oct. 15, 2025, 4:03 p.m. UTC

TLE line 0: 0 RESURS O1-N4

TLE line 1: 1 25394U 98043A 25288.66932546 .00000198 00000-0 10404-3 0 9993

TLE line 2: 2 25394 98.9091 253.0432 0002405 102.8950 257.2497 14.25009620417508

Live tracking on map

Real-time ground track for satellite RESURS O1-N4.

In-orbit conjunctions

A list of the most updated potential collisions computed for object RESURS O1-N4.

Target Orbit TCA Probability of collision Miss distance Type
PEGASUS DEB LEO 2025-09-16 20:44:34 0.0011512 294.0 (m) DEBRIS
METEOR 2-8 DEB LEO 2025-09-13 10:09:04 0.0008490488 464.0 (m) DEBRIS
CZ-4C DEB SSO 2025-08-23 06:14:05 0.001209504 287.0 (m) DEBRIS
COSMOS 1275 DEB LEO 2025-06-30 14:36:16 0.0002478523 115.0 (m) DEBRIS
CZ-6A DEB SSO 2025-06-06 23:30:22 0.0001534106 449.0 (m) DEBRIS

Associated space launch

Resurs-O1 N4 or Resurs-O1 2 is the fourth earth observation satellite in the Russian Resurs-O1 program.

RESURS O1-N4 was lifted into orbit during the mission ‘Zenit-2 | Resurs-O1’, on board a Zenit-2 space rocket.

The launch took place on July 10, 1998, 6:30 a.m. from 45/1.

For more information about the launch, click the button.

Launch to space Zenit-2 | Resurs-O1
Zenit-2 | Resurs-O1

Agency: N/A

Status: Launch Successful

Launch date: July 10, 1998, 6:30 a.m. UTC

Rocket: Zenit-2

Launch pad: 45/1

Location: Baikonur Cosmodrome, Republic of Kazakhstan

...

Latest news about this satellite

There are no fresh news available about this satellite. Check back as we update our databases every day.


Newsletter sign-up

Weekly statistics, charts and insights to help you stay on top of the space industry.